Location: Clandonald
(53.5720°N, 110.7141°W)
Time: 18:03:01
(UTC+00:00)

Envisat - Pass Details

Date: 31 October 2019
Orbit: 764 x 766 km, 98.1° (Epoch: 12 November)

Event Time Altitude Azimuth Distance (km) Brightness Sun altitude
Rises 02:21:07 0° 199° (SSW) 3,223 6.4 -22.2°
Reaches altitude 10° 02:23:47 10° 212° (SSW) 2,301 5.8 -22.6°
Maximum altitude 02:27:59 26° 269° (W) 1,488 5.2 -23.3°
Drops below altitude 10° 02:32:13 10° 325° (NW) 2,315 6.0 -23.9°
Sets 02:34:55 0° 338° (NNW) 3,246 6.7 -24.3°
